{"data":{"norad_id":58965,"intl_designator":"2024-031A","name":"STARLINK-31373","alt_names":[],"object_type":"PAYLOAD","status":"ACTIVE","operator":null,"country":"US","launch_date":"2024-02-15","launch_site_code":"AFWTR","launch_vehicle":null,"mission":null,"orbit_class":"UNKNOWN","rcs_meters":null,"size_class":null,"mass_kg":null,"dimensions":null,"purposes":["comms"],"wikipedia_slug":null,"has_3d_model":false,"image_url":null,"decayed_at":null,"tle_current":{"epoch":"2026-09-20T23:01:15.022560Z","epoch_age_seconds":116042,"freshness":"FRESH","line1":"1 58965U 24031A   26263.95920165  .00001869  00000+0  66474-4 0  9993","line2":"2 58965  53.1586 107.2914 0001376  91.1023 269.0137 15.34382873146463","mean_motion":15.34382873,"eccentricity":0.0001376,"inclination_deg":53.1586,"raan_deg":107.2914,"arg_perigee_deg":91.1023,"mean_anomaly_deg":269.0137,"bstar":6.6474e-5,"rev_number":14646,"period_min":93.848805623367,"perigee_km":461.81283911231,"apogee_km":463.69545235562,"semimajor_km":6840.891145734,"source":"CELESTRAK","updated_at":"2026-09-21T09:00:34.018310Z"}}}